Location: Clover
(42.5131°N, 114.6874°W)
Time: 10:36:35
(UTC+00:00)

ISS - Visible Passes

Search period start: 10 October 2024 00:00
Search period end: 20 October 2024 00:00
Orbit: 412 x 424 km, 51.6° (Epoch: 10 October)

Date Brightness Start Highest point End Pass type
(mag) Time Alt. Az. Time Alt. Az. Time Alt. Az.
15 Oct -0.8 12:53:29 10° SSE 12:55:19 14° SE 12:57:10 10° E visible
17 Oct -2.4 12:52:00 10° SSW 12:55:06 38° SE 12:58:13 10° ENE visible
18 Oct -1.6 12:05:28 17° S 12:06:49 22° SE 12:09:29 10° E visible
19 Oct -0.5 11:19:37 12° ESE 11:19:37 12° ESE 11:20:12 10° E visible
19 Oct -3.9 12:52:33 18° WSW 12:54:52 78° NNW 12:58:12 10° NE visible
